Flag for Poland Weather past 2 weeks in Dąbrowa Górnicza, Poland

Now
28 °F

Clear.


Feels Like: 23 °F
Forecast: 25 / 36 °F
Wind: 5 mph from Southeast

Location: Katowice Airport

Current Time: Jan 30, 2015 at 12:19:48 AM

Latest Report: Jan 30, 2015 at 12:00 AM


Visibility: 5 mi

Pressure: 29.18 "Hg

Humidity: 80%

Dew point: 23 °F

Location of Dąbrowa GórniczaLocation

Historic Weather in Dąbrowa Górnicza — Graph

°F

Dąbrowa Górnicza temperature yesterday

Maximum temperature yesterday: 36 °F (at 2:30 PM)
Minimum temperature yesterday: 28 °F (at 8:00 PM)
Average temperature yesterday: 32 °F

Past Weeks' High & Low Weather Summary

 TemperatureHumidityPressure
High52 °F (Jan 16, 1:30 PM)100% (Jan 17, 7:30 PM)30.24 "Hg (Jan 17, 7:30 PM)
Low23 °F (Jan 26, 9:00 PM)54% (Jan 16, 1:30 PM)29.18 "Hg (Jan 29, 11:00 PM)
Average34 °F90%29.94 "Hg
* Reported Jan 14 11:00 PM — Jan 29 11:00 PM, Dąbrowa Górnicza, Weather by CustomWeather, © 2014

Note: Actual official high and low records may vary slightly from our data, if they occured in-between our weather recording intervals... More about our weather records

Advertising

Dąbrowa Górnicza weather history for previous 24 hours

 ConditionsComfort  
Time TempWeatherWind HumidityBarometerVisibility
11:00 PM
Jan 29
28 °FClear.8 mph80%29.18 "Hg5 mi
10:30 PM28 °FClear.8 mph80%29.21 "Hg5 mi
10:00 PM28 °FPassing clouds.5 mph80%29.24 "HgN/A
9:30 PM28 °FPassing clouds.3 mph80%29.24 "HgN/A
9:00 PM30 °FClear.6 mph75%29.24 "Hg5 mi
8:30 PM30 °FClear.7 mph80%29.27 "Hg5 mi
8:00 PM28 °FClear.7 mph80%29.30 "Hg5 mi
7:30 PM30 °FClear.7 mph80%29.30 "Hg10 mi
7:00 PM30 °FPassing clouds.6 mph80%29.30 "HgN/A
6:30 PM32 °FPassing clouds.5 mph75%29.33 "HgN/A
6:00 PM30 °FPassing clouds.6 mph80%29.33 "HgN/A
5:30 PM32 °FPassing clouds.7 mph75%29.33 "HgN/A
5:00 PM32 °FPassing clouds.6 mph80%29.33 "HgN/A
4:30 PM32 °FPassing clouds.9 mph80%29.36 "HgN/A
4:00 PM34 °FPassing clouds.9 mph75%29.36 "HgN/A
3:30 PM34 °FScattered clouds.12 mph75%29.36 "HgN/A
3:00 PM34 °FScattered clouds.10 mph81%29.36 "HgN/A
2:30 PM36 °FScattered clouds.12 mph75%29.36 "HgN/A
2:00 PM34 °FBroken clouds.10 mph81%29.36 "HgN/A
1:30 PM34 °FScattered clouds.13 mph81%29.39 "HgN/A
1:00 PM34 °FScattered clouds.14 mph87%29.39 "HgN/A
12:30 PM34 °FBroken clouds.14 mph87%29.42 "Hg5 mi
12:00 PM32 °FSnow flurries. Broken clouds.14 mph93%29.42 "Hg4 mi
11:30 AM32 °FSnow flurries. Ice fog.15 mph100%29.42 "Hg1 mi
11:00 AM32 °FSnow flurries. Ice fog.10 mph93%29.42 "Hg1 mi
10:30 AM32 °FSnow flurries. Ice fog.13 mph93%29.42 "Hg1 mi
10:00 AM32 °FSnow flurries. Partly sunny.9 mph87%29.42 "Hg4 mi
9:30 AM32 °FSnow flurries. Broken clouds.10 mph87%29.42 "Hg4 mi
9:00 AM32 °FSnow flurries. Ice fog.14 mph87%29.42 "Hg2 mi
8:30 AM32 °FSnow flurries. Ice fog.12 mph80%29.42 "Hg2 mi
8:00 AM32 °FSnow flurries. Ice fog.10 mph80%29.42 "Hg2 mi
7:30 AM32 °FSnow flurries. Ice fog.10 mph87%29.42 "Hg2 mi
7:00 AM32 °FLight snow. Passing clouds.16 mph80%29.42 "HgN/A
6:30 AM34 °FLight rain. Passing clouds.16 mph70%29.42 "HgN/A
6:00 AM34 °FLight snow. Passing clouds.17 mph70%29.42 "HgN/A
5:30 AM34 °FLight rain. Passing clouds.17 mph70%29.42 "HgN/A
5:00 AM34 °FLight snow. Passing clouds.12 mph70%29.42 "HgN/A
4:30 AM34 °FPassing clouds.16 mph70%29.45 "HgN/A
4:00 AM32 °FPassing clouds.7 mph75%29.45 "HgN/A
3:30 AM32 °FPassing clouds.8 mph75%29.45 "HgN/A
3:00 AM32 °FPassing clouds.6 mph75%29.47 "HgN/A
2:30 AM32 °FPassing clouds.6 mph75%29.47 "HgN/A
2:00 AM32 °FClear.12 mph69%29.50 "Hg10 mi
1:30 AM32 °FPassing clouds.7 mph75%29.50 "HgN/A
1:00 AM30 °FPassing clouds.8 mph80%29.53 "HgN/A
12:30 AM30 °FPassing clouds.9 mph80%29.56 "HgN/A
12:00 AM30 °FPassing clouds.8 mph80%29.56 "HgN/A
Weather by CustomWeather, © 2014

See weather overviewHow to use our weather pages